Location: hvezdarna zebrak
(49.8744°N, 13.8989°E)
Time: 18:34:39
(UTC+02:00)

Tiangong - Pass Details

Date: 16 March 2026
Orbit: 376 x 385 km, 41.5° (Epoch: 18 April)

Event Time Altitude Azimuth Distance (km) Brightness Sun altitude
Exits shadow 05:36:57 - 234° (SW) 1,659 0.5 -7.2°
Reaches altitude 10° 05:37:46 10° 225° (SW) 1,402 0.2 -7.0°
Maximum altitude 05:40:02 18° 179° (S) 1,021 0.0 -6.7°
Drops below altitude 10° 05:42:18 10° 133° (SE) 1,409 1.4 -6.3°
Sets 05:44:47 0° 114° (ESE) 2,267 3.0 -5.9°
